This demonstration page uses our WeatherBlox Daily Observations layout. Learn more.

Hourly Observations for August 14, 2017

Temp ( °F °C ) Dew Point ( °F °C ) Humidity (%) Winds ( mph kmh ) Pressure ( in mb ) Visibility ( mi km ) Precip ( " mm )
12:15 am 00:15 Clear 72 22.2 65 18.1 78 78 S 17 28 29.71 1006 10 16.09344 0 0
12:35 am 00:35 Clear 71 21.5 62 16.9 75 75 SSW 13 20 29.71 1006 10 16.09344 0 0
12:55 am 00:55 Clear with Nearby Thunderstorms 71 21.6 64 17.9 80 80 SSW 16 26 29.71 1006 10 16.09344 0 0
1:15 am 01:15 Clear 70 21.2 63 17 77 77 SSW 13 20 29.74 1007 10 16.09344 0 0
1:35 am 01:35 Partly Cloudy 70 21.1 58 14.3 65 65 SSW 13 20 29.74 1007 10 16.09344 0 0
1:55 am 01:55 Mostly Cloudy 70 20.9 58 14.7 68 68 SSW 17 28 29.71 1006 10 16.09344 0 0
2:15 am 02:15 Mostly Cloudy 70 21.3 58 14.3 64 64 SW 3 6 29.74 1007 10 16.09344 0 0
2:35 am 02:35 Cloudy with Thunderstorms 66 19 60 15.3 79 79 N 9 15 29.83 1010 10 16.09344 0 0
2:55 am 02:55 Cloudy with Heavy Thunderstorms 66 19 60 15.4 80 80 N 13 20 29.83 1010 4 6.437376 0.23 5.842
3:15 am 03:15 Cloudy with Heavy Rain 64 17.6 60 15.7 89 89 WNW 7 11 29.88 1012 4 6.437376 0.25 6.35
3:35 am 03:35 Cloudy with Thunderstorms 64 17.9 60 15.7 87 87 Calm 29.85 1011 7 11.265408 0.3 7.62
3:55 am 03:55 Mostly Cloudy with Light Rain 64 17.8 61 16 89 89 SE 6 9 29.83 1010 10 16.09344 0.33 8.382
4:15 am 04:15 Partly Cloudy with Nearby Thunderstorms 65 18.1 60 15.6 85 85 E 9 15 29.8 1009 10 16.09344 0 0
4:35 am 04:35 Partly Cloudy 65 18.3 60 15.5 84 84 ESE 7 11 29.8 1009 10 16.09344 0 0
4:55 am 04:55 Partly Cloudy 64 18 61 15.9 88 88 E 6 9 29.8 1009 10 16.09344 0 0
5:15 am 05:15 Partly Cloudy 64 17.8 61 15.9 89 89 Calm 29.8 1009 10 16.09344 0 0
5:35 am 05:35 Clear 62 16.7 60 15.5 93 93 NW 3 6 29.8 1009 10 16.09344 0 0
5:55 am 05:55 Clear 61 16.2 59 15.1 93 93 WNW 6 9 29.8 1009 7 11.265408 0 0
6:15 am 06:15 Clear 61 16 59 15 94 94 W 5 7 29.77 1008 7 11.265408 0 0
6:35 am 06:35 Clear 60 15.8 58 14.7 93 93 NW 5 7 29.8 1009 7 11.265408 0 0
6:55 am 06:55 Sunny with Mist and Fog 60 15.6 58 14.6 94 94 WNW 6 9 29.8 1009 5 8.04672 0 0
7:15 am 07:15 Sunny with Mist and Fog 60 15.4 58 14.4 94 94 WNW 5 7 29.8 1009 5 8.04672 0 0
7:35 am 07:35 Sunny with Mist and Fog 61 16 59 14.9 93 93 NW 5 7 29.8 1009 4 6.437376 0 0
7:55 am 07:55 Sunny 62 16.6 60 15.4 93 93 WNW 3 6 29.8 1009 7 11.265408 0 0
8:15 am 08:15 Sunny 64 17.5 60 15.5 88 88 W 3 6 29.8 1009 10 16.09344 0 0
8:35 am 08:35 Sunny 66 19 61 16.3 84 84 Calm 29.77 1008 10 16.09344 0 0
8:55 am 08:55 Sunny 68 19.8 61 16.3 80 80 Calm 29.77 1008 10 16.09344 0 0
9:15 am 09:15 Sunny 70 21 62 16.8 77 77 Calm 29.77 1008 10 16.09344 0 0
9:35 am 09:35 Sunny 72 22 63 17.2 74 74 Calm 29.74 1007 10 16.09344 0 0
9:55 am 09:55 Sunny 72 22.2 64 17.5 75 75 ESE 15 24 29.77 1008 10 16.09344 0 0
10:15 am 10:15 Sunny 74 23.1 63 17 69 69 E 10 17 29.77 1008 10 16.09344 0 0
10:35 am 10:35 Sunny 74 23.4 63 17.1 68 68 ESE 10 17 29.74 1007 10 16.09344 0 0
10:55 am 10:55 Sunny 75 23.8 63 17 66 66 ESE 9 15 29.74 1007 10 16.09344 0 0
11:15 am 11:15 Sunny 76 24.3 63 17.1 64 64 ESE 10 17 29.77 1008 10 16.09344 0 0
11:35 am 11:35 Sunny 77 24.8 63 17.2 63 63 ESE 10 17 29.77 1008 10 16.09344 0 0
11:55 am 11:55 Sunny 78 25.3 62 16.9 60 60 ESE 10 17 29.74 1007 10 16.09344 0 0
12:15 pm 12:15 Sunny 78 25.7 63 17 59 59 ESE 8 13 29.74 1007 10 16.09344 0 0
12:35 pm 12:35 Sunny 78 25.7 63 17.2 59 59 ESE 15 24 29.71 1006 10 16.09344 0 0
12:55 pm 12:55 Sunny 79 26.1 63 17.3 58 58 ESE 13 20 29.71 1006 10 16.09344 0 0
1:15 pm 13:15 Sunny 80 26.7 64 17.5 57 57 SE 10 17 29.71 1006 10 16.09344 0 0
1:35 pm 13:35 Sunny 80 26.9 64 17.6 57 57 ESE 9 15 29.71 1006 10 16.09344 0 0
1:55 pm 13:55 Sunny 81 27.3 65 18.5 59 59 ESE 8 13 29.71 1006 10 16.09344 0 0
2:15 pm 14:15 Sunny 81 27.2 65 18.2 58 58 ESE 12 19 29.71 1006 10 16.09344 0 0
2:35 pm 14:35 Sunny 82 27.5 65 18.1 57 57 ESE 10 17 29.68 1005 10 16.09344 0 0
2:55 pm 14:55 Sunny 82 27.7 66 18.7 58 58 SE 10 17 29.71 1006 10 16.09344 0 0
3:15 pm 15:15 Sunny 82 28 65 18.6 57 57 SE 9 15 29.68 1005 10 16.09344 0 0
3:35 pm 15:35 Partly Cloudy 83 28.1 66 18.9 57 57 ESE 13 20 29.68 1005 10 16.09344 0 0
3:55 pm 15:55 Sunny 83 28.4 67 19.4 58 58 ESE 13 20 29.68 1005 10 16.09344 0 0
4:15 pm 16:15 Sunny 84 28.7 67 19.3 57 57 SE 10 17 29.65 1004 10 16.09344 0 0
4:35 pm 16:35 Partly Cloudy 82 27.9 67 19.3 60 60 ESE 12 19 29.68 1005 10 16.09344 0 0
4:55 pm 16:55 Mostly Cloudy 84 28.7 68 20 59 59 ESE 9 15 29.65 1004 10 16.09344 0 0
5:15 pm 17:15 Partly Cloudy 84 28.7 68 20 59 59 ESE 9 15 29.65 1004 10 16.09344 0 0
5:35 pm 17:35 Mostly Cloudy 83 28.5 69 20.6 62 62 E 12 19 29.62 1003 10 16.09344 0 0
5:55 pm 17:55 Mostly Cloudy 83 28.3 69 20.4 62 62 SE 10 17 29.68 1005 10 16.09344 0 0
6:15 pm 18:15 Partly Cloudy 82 28 69 20.7 65 65 E 9 15 29.65 1004 10 16.09344 0 0
6:35 pm 18:35 Sunny 82 27.6 69 20.7 66 66 ESE 8 13 29.65 1004 10 16.09344 0 0
6:55 pm 18:55 Sunny 81 27.3 70 21.1 69 69 ESE 9 15 29.65 1004 10 16.09344 0 0
7:15 pm 19:15 Sunny 81 27.1 70 20.9 69 69 E 9 15 29.65 1004 10 16.09344 0 0
7:35 pm 19:35 Sunny 80 26.5 70 21.1 72 72 E 8 13 29.65 1004 10 16.09344 0 0
7:55 pm 19:55 Sunny 80 26.4 69 20.8 71 71 E 10 17 29.65 1004 10 16.09344 0 0
8:15 pm 20:15 Sunny 78 25.7 68 20.2 72 72 E 9 15 29.68 1005 10 16.09344 0 0
8:35 pm 20:35 Sunny 76 24.7 69 20.5 78 78 E 8 13 29.68 1005 10 16.09344 0 0
8:55 pm 20:55 Clear 76 24.5 68 20 76 76 E 10 17 29.68 1005 10 16.09344 0 0
9:15 pm 21:15 Clear 76 24.5 67 19.5 74 74 E 10 17 29.71 1006 10 16.09344 0 0
9:35 pm 21:35 Clear 75 24 67 19.6 76 76 ESE 10 17 29.71 1006 10 16.09344 0 0
9:55 pm 21:55 Clear 74 23.6 67 19.6 78 78 E 8 13 29.71 1006 10 16.09344 0 0
10:15 pm 22:15 Clear 74 23.2 67 19.7 81 81 E 8 13 29.71 1006 10 16.09344 0 0
10:35 pm 22:35 Clear 73 22.5 67 19.6 84 84 E 8 13 29.71 1006 10 16.09344 0 0
10:55 pm 22:55 Clear 72 22.3 67 19.7 85 85 E 9 15 29.71 1006 10 16.09344 0 0
11:15 pm 23:15 Clear 73 22.5 68 20 86 86 ESE 9 15 29.71 1006 10 16.09344 0 0
11:35 pm 23:35 Clear 73 22.5 68 20 86 86 E 9 15 29.71 1006 10 16.09344 0 0
11:55 pm 23:55 Clear 72 22.2 68 20 87 87 E 12 19 29.71 1006 10 16.09344 0 0

Powered by AerisWeather